TimeAKDT,TemperatureF,Dew PointF,Humidity,Sea Level PressureIn,VisibilityMPH,Wind Direction,Wind SpeedMPH,Gust SpeedMPH,PrecipitationIn,Events,Conditions,WindDirDegrees,DateUTC
12:09 AM,44.6,39.2,81,29.34,4.0,WNW,27.6,39.1,0.01,Rain,Light Rain,300,2013-10-13 08:09:00
12:34 AM,44.6,39.2,81,29.37,8.0,WNW,25.3,35.7,0.02,Rain,Light Rain,300,2013-10-13 08:34:00
12:56 AM,46.0,39.0,76,29.40,8.0,WNW,28.8,42.6,0.03,Rain,Light Rain,300,2013-10-13 08:56:00
1:56 AM,46.0,39.0,76,29.44,10.0,WNW,23.0,31.1,0.02,Rain,Light Rain,290,2013-10-13 09:56:00
2:56 AM,45.0,39.0,80,29.47,7.0,WNW,32.2,41.4,0.01,Rain,Light Rain,290,2013-10-13 10:56:00
3:56 AM,44.1,39.0,82,29.49,7.0,WNW,21.9,31.1,0.02,Rain,Light Rain,300,2013-10-13 11:56:00
4:56 AM,44.1,39.0,82,29.52,6.0,WNW,20.7,32.2,0.01,Rain,Light Rain,290,2013-10-13 12:56:00
5:56 AM,44.1,37.9,79,29.56,7.0,West,23.0,29.9,0.04,Rain,Light Rain,280,2013-10-13 13:56:00
6:18 AM,44.6,39.2,81,29.55,7.0,West,24.2,36.8,0.01,Rain,Light Rain,280,2013-10-13 14:18:00
6:56 AM,44.1,37.9,79,29.60,10.0,West,25.3,34.5,0.01,Rain,Light Rain,270,2013-10-13 14:56:00
7:56 AM,44.1,37.9,79,29.64,8.0,West,19.6,32.2,0.01,Rain,Light Rain,280,2013-10-13 15:56:00
8:56 AM,44.1,37.9,79,29.67,10.0,West,25.3,28.8,0.01,Rain,Light Rain,280,2013-10-13 16:56:00
9:04 AM,42.8,37.4,81,29.66,6.0,West,20.7,-,0.00,Rain,Light Rain,270,2013-10-13 17:04:00
9:56 AM,44.1,37.0,76,29.70,10.0,WNW,19.6,28.8,0.01,Rain,Light Rain,290,2013-10-13 17:56:00
9:57 AM,44.6,37.4,76,29.68,10.0,WNW,21.9,28.8,0.00,Rain,Light Rain,290,2013-10-13 17:57:00
10:56 AM,44.1,36.0,73,29.74,10.0,West,23.0,26.5,0.00,,Overcast,280,2013-10-13 18:56:00
10:59 AM,44.6,35.6,71,29.72,10.0,WNW,20.7,26.5,N/A,,Overcast,290,2013-10-13 18:59:00
11:03 AM,44.6,37.4,76,29.73,8.0,WNW,26.5,36.8,0.00,Rain,Light Rain,290,2013-10-13 19:03:00
11:04 AM,44.6,37.4,76,29.73,8.0,WNW,23.0,36.8,0.00,Rain,Light Rain,290,2013-10-13 19:04:00
11:56 AM,44.1,36.0,73,29.76,8.0,West,23.0,26.5,0.00,Rain,Light Rain,280,2013-10-13 19:56:00
12:56 PM,45.0,36.0,71,29.79,10.0,WNW,25.3,-,0.00,,Mostly Cloudy,290,2013-10-13 20:56:00
1:08 PM,44.6,35.6,71,29.77,10.0,WNW,18.4,28.8,N/A,,Overcast,290,2013-10-13 21:08:00
1:56 PM,45.0,35.1,68,29.80,10.0,WNW,20.7,32.2,0.00,,Overcast,300,2013-10-13 21:56:00
2:18 PM,44.6,35.6,71,29.79,10.0,WNW,24.2,31.1,N/A,,Mostly Cloudy,290,2013-10-13 22:18:00
2:56 PM,45.0,36.0,71,29.81,10.0,WNW,17.3,-,0.00,,Mostly Cloudy,290,2013-10-13 22:56:00
3:56 PM,46.0,35.1,66,29.83,10.0,WNW,13.8,-,N/A,,Mostly Cloudy,300,2013-10-13 23:56:00
4:56 PM,45.0,33.1,63,29.83,10.0,WNW,11.5,-,N/A,,Mostly Cloudy,300,2013-10-14 00:56:00
5:03 PM,44.6,33.8,66,29.81,10.0,WNW,10.4,-,N/A,,Mostly Cloudy,300,2013-10-14 01:03:00
5:56 PM,45.0,35.1,68,29.84,10.0,WSW,10.4,-,N/A,,Mostly Cloudy,240,2013-10-14 01:56:00
6:46 PM,44.6,33.8,66,29.83,10.0,WSW,8.1,-,N/A,,Partly Cloudy,240,2013-10-14 02:46:00
6:56 PM,45.0,33.1,63,29.84,10.0,SSW,6.9,-,N/A,,Partly Cloudy,210,2013-10-14 02:56:00
7:56 PM,44.1,35.1,71,29.86,10.0,SSW,11.5,-,N/A,,Partly Cloudy,200,2013-10-14 03:56:00
8:56 PM,44.1,34.0,68,29.86,10.0,SSW,12.7,-,N/A,,Overcast,200,2013-10-14 04:56:00
9:56 PM,44.1,35.1,71,29.84,10.0,SSW,9.2,-,N/A,,Mostly Cloudy,200,2013-10-14 05:56:00
10:56 PM,44.1,34.0,68,29.82,10.0,South,11.5,-,N/A,,Overcast,190,2013-10-14 06:56:00
11:56 PM,45.0,32.0,60,29.80,10.0,South,5.8,-,N/A,,Overcast,180,2013-10-14 07:56:00